[[{"header":{"parameterUnit":"m.s-1","parameterCategory":1,"la1":30.2991,"la2":30.254,"lo1":-89.0895,"lo2":-89.0444,"dy":0.0017,"dx":0.0017,"nx":28,"ny":28,"refTime":"2025-06-06T03:00:00:Z","depth":0,"parameterNumber":2,"parameterNumberName":"U-component_of_WINDS"},"data":[0,0,0,0,0,0,0,0,0,0,0,0,0,0,0,0,0,0,0,0,0,0,0,0,0,0,0,0,0,0,0,0,0,0,0,0,0,0,0,0,0,0,0,0,0,0,0,0,0,0,0,0,0,0,0,0,0,0,1.2487,1.2487,0,1.2471,1.2471,1.2471,1.2417,1.2416,1.2415,1.2414,1.24,1.2401,1.2402,0,0,0,0,0,0,0,0,0,0,0,0,0,1.247,1.2471,1.2487,1.2487,1.2487,1.2471,1.2471,1.2471,1.2418,1.2416,1.2415,1.2413,1.24,1.2401,1.2402,0,0,0,0,0,0,0,0,0,0,0,0,0,1.2469,1.2471,1.2487,1.2458,1.2455,1.2472,1.2471,1.2471,1.2418,1.2416,1.2414,1.2413,1.24,1.2401,1.2402,1.2446,0,0,1.2406,1.2406,0,0,0,0,0,0,0,0,1.2469,1.2469,1.2462,1.246,1.2457,1.2444,1.246,1.2463,1.2418,1.2432,1.2414,1.2412,1.2417,1.2416,1.2417,1.2445,1.2444,1.2406,1.2406,1.2407,1.2407,0,0,0,0,0,0,0,1.2469,1.247,1.2481,1.2462,1.2459,1.2446,1.2444,1.2461,1.2435,1.2431,1.2427,1.2426,1.2415,1.2416,1.2417,1.2444,1.2406,1.2407,1.2407,1.2408,1.2504,1.2505,0,0,0,0,0,0,1.2473,1.247,1.2481,1.248,1.2458,1.2448,1.2445,1.245,1.2435,1.243,1.2427,1.2423,1.2415,1.2415,1.2416,1.2464,1.2407,1.2408,1.2409,1.2502,1.2504,1.2506,0,0,0,0,0,0,1.2473,1.2475,1.2482,1.2474,1.2474,1.245,1.2456,1.2451,1.2453,1.2432,1.2427,1.2434,1.2414,1.2414,1.2438,1.2462,1.2408,1.241,1.25,1.2502,1.2505,1.2561,0,0,0,0,0,0,1.2473,1.2475,1.2491,1.2475,1.2475,1.2504,1.2458,1.2452,1.2454,1.2449,1.2437,1.2433,1.2413,1.2436,1.2439,1.2463,1.241,1.2497,1.2501,1.2504,1.2557,1.2565,1.2572,0,0,0,0,0,1.2472,1.2509,1.2492,1.2494,1.2495,1.2506,1.2506,1.2481,1.2457,1.2473,1.2459,1.2433,1.246,1.2439,1.2442,1.2467,1.2496,1.25,1.2504,1.2553,1.2564,1.2572,0,0,0,0,0,0,1.253,1.2506,1.2488,1.252,1.2515,1.2497,1.2516,1.2493,1.2496,1.2491,1.2461,1.2458,1.2485,1.2479,1.2456,1.2506,1.2473,1.2478,1.251,1.2519,1.2527,1.2528,1.2411,0,0,0,0,0,1.2547,1.2557,1.2536,1.2567,1.2565,1.2541,1.2545,1.2526,1.252,1.2518,1.2506,1.2502,1.2508,1.2514,1.2519,1.2556,1.2551,1.2574,1.2582,1.2588,1.2593,1.2609,1.2618,1.252,1.252,1.252,0,0,1.2581,1.2569,1.2578,1.2578,1.2572,1.2583,1.254,1.2554,1.2562,1.252,1.2541,1.2532,1.2525,1.2554,1.2566,1.2549,1.2619,1.2594,1.2599,1.26,1.2614,1.2623,1.2631,1.2522,1.2522,1.2522,0,0,1.2649,1.2642,1.2665,1.2659,1.265,1.2633,1.2639,1.2623,1.2615,1.2635,1.2603,1.2612,1.2626,1.2621,1.262,1.2683,1.2659,1.2686,1.2727,1.2743,1.2751,1.2757,1.2778,1.2786,1.2691,1.2691,1.2691,0,1.2693,1.2708,1.268,1.2695,1.2695,1.2657,1.2679,1.2675,1.2669,1.267,1.265,1.2664,1.2657,1.2683,1.2698,1.27,1.2704,1.2687,1.2752,1.2758,1.2764,1.2783,1.2791,1.2694,1.2694,1.2693,1.2693,0,1.2761,1.2772,1.2792,1.2784,1.2787,1.2806,1.278,1.2786,1.2767,1.2752,1.2772,1.2761,1.2763,1.2768,1.275,1.2791,1.278,1.2757,1.2723,1.2777,1.2794,1.2802,1.2699,1.2697,1.2697,1.2696,0,0,1.2866,1.284,1.2848,1.2843,1.2829,1.2837,1.2853,1.2853,1.2858,1.2855,1.2867,1.2878,1.2855,1.2854,1.2836,1.285,1.2898,1.2824,1.2824,1.2837,1.2939,1.2956,1.2965,1.2882,1.2883,1.2884,1.2939,0,1.2928,1.2954,1.2928,1.2959,1.2968,1.293,1.2945,1.2937,1.2924,1.2929,1.2915,1.2922,1.2893,1.2891,1.2904,1.2889,1.2918,1.2885,1.2892,1.2892,1.2893,1.2974,1.2992,1.3044,1.2946,1.2947,1.2948,0,1.3004,1.3002,1.3033,1.3014,1.3017,1.303,1.3026,1.3032,1.3023,1.3012,1.301,1.2986,1.3,1.2968,1.2986,1.2965,1.2966,1.2959,1.296,1.2959,1.2923,1.2973,1.3061,1.3068,1.2959,1.2958,1.2957,0,1.3074,1.3079,1.3098,1.3095,1.3074,1.3084,1.3076,1.3064,1.3065,1.3062,1.3062,1.3062,1.3061,1.3062,1.3038,1.3017,1.3059,1.3025,1.3049,1.305,1.3059,1.3058,1.3146,1.3063,1.3063,1.3063,1.3062,0,1.3145,1.3166,1.3128,1.314,1.3161,1.3131,1.3153,1.3141,1.313,1.3138,1.3107,1.3115,1.3085,1.3089,1.3071,1.3088,1.3089,1.308,1.3074,1.3082,1.3082,1.3081,1.3076,1.3065,1.3064,1.3064,1.3063,0,1.3227,1.3203,1.322,1.3198,1.3193,1.3209,1.319,1.32,1.3183,1.3194,1.3195,1.3169,1.3173,1.315,1.315,1.3138,1.3163,1.3152,1.3166,1.3162,1.3187,1.3184,1.3275,1.3285,1.3197,1.3198,1.3199,0,1.3273,1.3287,1.3266,1.3268,1.3261,1.3266,1.3266,1.3237,1.3238,1.3226,1.3237,1.3238,1.3237,1.3245,1.3226,1.3226,1.3214,1.3246,1.3214,1.3219,1.3212,1.321,1.3211,1.3252,1.3254,1.3254,1.3255,0,1.3356,1.3343,1.3344,1.334,1.334,1.3336,1.3329,1.3333,1.3302,1.3305,1.3307,1.3306,1.3305,1.3306,1.3301,1.3293,1.3268,1.3265,1.3271,1.3277,1.3283,1.3278,1.3182,1.3263,1.3263,1.3262,1.3261,1.3261,1.342,1.343,1.3415,1.3416,1.3408,1.3402,1.3409,1.3393,1.3394,1.339,1.3373,1.3378,1.3366,1.3357,1.3351,1.3354,1.3339,1.3347,1.3349,1.3351,1.3354,1.3284,1.3354,1.3353,1.3353,1.3353,1.3353,0,1.35,1.3488,1.3489,1.348,1.3481,1.3457,1.3448,1.345,1.3454,1.3445,1.3444,1.3446,1.3446,1.3427,1.3425,1.3431,1.3419,1.3431,1.3429,1.3427,1.3369,1.3364,1.344,1.344,1.344,1.344,1.344,1.344,1.3541,1.3555,1.354,1.355,1.3538,1.3542,1.3538,1.3533,1.3524,1.3527,1.3527,1.3514,1.35,1.3496,1.3495,1.3489,1.3489,1.3504,1.3495,1.344,1.3432,1.3424,1.3418,1.3505,1.3505,1.3552,1.3553,1.3553]},{"header":{"parameterUnit":"m.s-1","parameterCategory":1,"la1":30.2991,"la2":30.254,"lo1":-89.0895,"lo2":-89.0444,"dy":0.0017,"dx":0.0017,"nx":28,"ny":28,"refTime":"2025-06-06T03:00:00:Z","depth":0,"parameterNumber":3,"parameterNumberName":"V-component_of_WINDS"},"data":[0,0,0,0,0,0,0,0,0,0,0,0,0,0,0,0,0,0,0,0,0,0,0,0,0,0,0,0,0,0,0,0,0,0,0,0,0,0,0,0,0,0,0,0,0,0,0,0,0,0,0,0,0,0,0,0,0,0,4.158,4.1581,0,4.1682,4.1683,4.1684,4.1656,4.1654,4.1652,4.165,4.175,4.1754,4.1759,0,0,0,0,0,0,0,0,0,0,0,0,0,4.1355,4.1359,4.1579,4.1581,4.1582,4.1681,4.1683,4.1684,4.1657,4.1654,4.1652,4.1649,4.1748,4.1753,4.1759,0,0,0,0,0,0,0,0,0,0,0,0,0,4.1454,4.1361,4.1579,4.158,4.1582,4.1681,4.1683,4.1685,4.1657,4.1654,4.1651,4.1648,4.1746,4.1753,4.176,4.1863,0,0,4.178,4.1783,0,0,0,0,0,0,0,0,4.1449,4.1463,4.1579,4.158,4.1582,4.1653,4.164,4.1744,4.1658,4.1628,4.165,4.1647,4.172,4.1728,4.1754,4.1867,4.1872,4.1781,4.1785,4.1788,4.179,0,0,0,0,0,0,0,4.1442,4.1458,4.162,4.1581,4.1582,4.1574,4.1585,4.166,4.169,4.1631,4.1629,4.1642,4.172,4.1748,4.1756,4.1873,4.1781,4.1787,4.1791,4.1794,4.2075,4.2078,0,0,0,0,0,0,4.1435,4.1452,4.1616,4.1623,4.1507,4.1581,4.1593,4.1633,4.1689,4.1694,4.1644,4.164,4.1738,4.1748,4.176,4.1883,4.1788,4.1794,4.1798,4.2071,4.2075,4.2079,0,0,0,0,0,0,4.143,4.145,4.1612,4.1537,4.1557,4.1588,4.1634,4.1637,4.1665,4.1699,4.1704,4.1667,4.1736,4.175,4.1837,4.1886,4.1798,4.1804,4.2067,4.2073,4.2077,4.2131,0,0,0,0,0,0,4.1424,4.1448,4.1489,4.1538,4.1561,4.169,4.1637,4.1641,4.1677,4.1673,4.1722,4.1727,4.1734,4.1827,4.1844,4.1894,4.1809,4.2063,4.207,4.2076,4.2125,4.2137,4.2148,0,0,0,0,0,4.1416,4.1499,4.1491,4.1511,4.1613,4.1693,4.1706,4.1714,4.1681,4.1721,4.1743,4.1726,4.1878,4.1837,4.1855,4.1908,4.206,4.2068,4.2075,4.212,4.2135,4.2148,0,0,0,0,0,0,4.1452,4.1505,4.1497,4.1599,4.1642,4.1688,4.1739,4.173,4.1781,4.1774,4.178,4.1792,4.1881,4.1903,4.1856,4.201,4.1964,4.1976,4.1992,4.2006,4.2018,4.2009,4.1815,0,0,0,0,0,4.1472,4.1535,4.1577,4.1663,4.1685,4.1709,4.1744,4.1746,4.179,4.1807,4.1835,4.1877,4.1934,4.1972,4.2026,4.2129,4.2138,4.2174,4.2185,4.2194,4.2204,4.2258,4.2274,4.2104,4.2104,4.2104,0,0,4.1514,4.1551,4.1589,4.1671,4.1704,4.1767,4.1724,4.1792,4.1837,4.1817,4.1901,4.1924,4.197,4.2065,4.2109,4.2087,4.2253,4.2204,4.2211,4.2216,4.2268,4.2284,4.2298,4.2109,4.2108,4.2107,0,0,4.1622,4.1657,4.1732,4.1767,4.1818,4.1834,4.1852,4.19,4.1914,4.2,4.1985,4.2039,4.2138,4.2171,4.2201,4.2323,4.2307,4.234,4.2399,4.2452,4.2465,4.2477,4.2519,4.2534,4.235,4.235,4.235,0,4.1666,4.1762,4.1771,4.184,4.1876,4.1863,4.1937,4.197,4.2036,4.206,4.2035,4.2159,4.219,4.2292,4.2321,4.2347,4.2366,4.2334,4.2463,4.2475,4.2486,4.2526,4.2542,4.2353,4.2353,4.2353,4.2352,0,4.1813,4.1879,4.1933,4.2,4.2041,4.2113,4.2131,4.2172,4.2172,4.2189,4.2275,4.2312,4.2373,4.2398,4.2397,4.25,4.2484,4.2462,4.2415,4.2506,4.2543,4.2559,4.2358,4.2357,4.2356,4.2355,0,0,4.1945,4.2017,4.2036,4.2066,4.2122,4.2172,4.2243,4.2305,4.2339,4.2385,4.2443,4.2528,4.2507,4.2541,4.2544,4.2591,4.2683,4.2562,4.2563,4.2582,4.2796,4.2812,4.283,4.2674,4.2677,4.2679,4.2792,0,4.2056,4.2183,4.2193,4.2306,4.2366,4.2354,4.2415,4.2456,4.2474,4.2526,4.2546,4.2605,4.2574,4.2594,4.264,4.2662,4.2725,4.2654,4.2726,4.2728,4.2713,4.285,4.2867,4.2972,4.2807,4.2809,4.2811,0,4.2203,4.2255,4.2374,4.2422,4.2448,4.2503,4.256,4.2611,4.2656,4.2666,4.2705,4.2701,4.2772,4.2725,4.2821,4.2772,4.2803,4.2818,4.2822,4.2827,4.2774,4.2857,4.3005,4.3021,4.2835,4.2833,4.2831,0,4.2285,4.2386,4.247,4.2496,4.2554,4.2592,4.2618,4.266,4.2697,4.2746,4.277,4.2827,4.2857,4.29,4.2912,4.2877,4.3008,4.2962,4.3016,4.3016,4.3043,4.304,4.3196,4.3065,4.3065,4.3064,4.3064,0,4.2407,4.248,4.2507,4.2559,4.264,4.2651,4.273,4.2753,4.2791,4.2845,4.2838,4.2889,4.2902,4.2955,4.2964,4.3042,4.3056,4.3065,4.3066,4.3065,4.3063,4.3083,4.3075,4.3069,4.3068,4.3067,4.3066,0,4.2512,4.2534,4.2624,4.2673,4.2687,4.2744,4.2784,4.2833,4.2851,4.292,4.2936,4.2964,4.3026,4.3042,4.3115,4.3122,4.3213,4.3208,4.3198,4.3197,4.325,4.3245,4.3423,4.3446,4.3301,4.3302,4.3304,0,4.2588,4.2644,4.2699,4.2736,4.2764,4.2823,4.2861,4.2874,4.2913,4.2968,4.301,4.3071,4.3121,4.322,4.3246,4.3302,4.3297,4.3356,4.3305,4.3302,4.3296,4.3292,4.3297,4.3365,4.3366,4.3367,4.3368,0,4.272,4.2728,4.2783,4.2842,4.2888,4.2935,4.2979,4.3009,4.3028,4.3072,4.3137,4.3175,4.3252,4.3312,4.3369,4.3393,4.3384,4.3385,4.34,4.3398,4.3389,4.3393,4.3222,4.338,4.3379,4.3378,4.3377,4.3377,4.2811,4.286,4.2906,4.2968,4.3004,4.3046,4.3094,4.3118,4.3173,4.3237,4.3241,4.331,4.3353,4.3429,4.3457,4.351,4.3492,4.3514,4.352,4.3525,4.3529,4.3383,4.352,4.352,4.352,4.3519,4.3519,0,4.2941,4.297,4.3027,4.3091,4.3139,4.3129,4.3178,4.3218,4.328,4.3322,4.3371,4.3445,4.3503,4.3534,4.3592,4.3629,4.3626,4.3643,4.364,4.3646,4.3542,4.3522,4.3645,4.3645,4.3645,4.3645,4.3645,4.3645,4.3014,4.3096,4.3109,4.3208,4.3237,4.3306,4.3335,4.3373,4.3407,4.349,4.3539,4.356,4.3597,4.3658,4.3711,4.3718,4.3739,4.3759,4.3763,4.3666,4.3653,4.3641,4.3622,4.3764,4.3764,4.3862,4.3863,4.3864]}]]